| time (UTC) | temp F | wind direction | speed MPH | gust MPH | rain 1hr in | rain 24hr in | rain mn in | humidity % | barometer mb |
| 20260504020117 | 67 | 133 | 0.0 | 0.0 | 0.00 | 0.00 | 0.00 | 55 | 1015.5 |
| 20260504014554 | 68 | 133 | 0.0 | 0.0 | 0.00 | 0.00 | 0.00 | 54 | 1015.1 |
| 20260504013048 | 69 | 133 | 0.0 | 0.0 | 0.00 | 0.00 | 0.00 | 51 | 1015.0 |
| 20260504011539 | 71 | 141 | 0.0 | 0.0 | 0.00 | 0.00 | 0.00 | 48 | 1015.1 |
| 20260504010043 | 71 | 145 | 0.0 | 0.0 | 0.00 | 0.00 | 0.00 | 48 | 1015.1 |
| 20260504004553 | 72 | 148 | 1.0 | 0.0 | 0.00 | 0.00 | 0.00 | 45 | 1015.0 |
| 20260504003037 | 73 | 126 | 1.0 | 0.0 | 0.00 | 0.00 | 0.00 | 46 | 1015.0 |
| 20260504001548 | 74 | 172 | 1.0 | 0.0 | 0.00 | 0.00 | 0.00 | 45 | 1015.2 |
| 20260504000033 | 74 | 144 | 2.0 | 0.0 | 0.00 | 0.00 | 0.00 | 44 | 1015.5 |
| 20260503234534 | 75 | 207 | 1.0 | 0.0 | 0.00 | 0.00 | 0.00 | 43 | 1015.5 |
| 20260503233038 | 76 | 159 | 2.0 | 0.0 | 0.00 | 0.00 | 0.00 | 42 | 1015.7 |
| 20260503231533 | 76 | 131 | 1.0 | 0.0 | 0.00 | 0.00 | 0.00 | 44 | 1015.7 |
| 20260503230033 | 76 | 140 | 2.0 | 0.0 | 0.00 | 0.00 | 0.00 | 42 | 1015.5 |
| 20260503224529 | 77 | 124 | 3.0 | 0.0 | 0.00 | 0.00 | 0.00 | 41 | 1015.6 |
| 20260503223027 | 78 | 165 | 3.0 | 0.0 | 0.00 | 0.00 | 0.00 | 38 | 1016.0 |
| 20260503221526 | 79 | 117 | 2.0 | 0.0 | 0.00 | 0.00 | 0.00 | 39 | 1016.1 |
| 20260503220031 | 79 | 210 | 3.0 | 0.0 | 0.00 | 0.00 | 0.00 | 38 | 1016.3 |
| 20260503214524 | 78 | 226 | 2.0 | 0.0 | 0.00 | 0.00 | 0.00 | 39 | 1016.4 |
| 20260503213021 | 79 | 116 | 3.0 | 0.0 | 0.00 | 0.00 | 0.00 | 38 | 1016.8 |
| 20260503211521 | 78 | 104 | 4.0 | 0.0 | 0.00 | 0.00 | 0.00 | 37 | 1017.0 |
| 20260503210017 | 79 | 226 | 3.0 | 0.0 | 0.00 | 0.00 | 0.00 | 38 | 1017.4 |
| 20260503204516 | 79 | 172 | 4.0 | 0.0 | 0.00 | 0.00 | 0.00 | 38 | 1017.6 |
| 20260503203035 | 79 | 118 | 2.0 | 0.0 | 0.00 | 0.00 | 0.00 | 37 | 1017.8 |
| 20260503201513 | 80 | 120 | 3.0 | 0.0 | 0.00 | 0.00 | 0.00 | 37 | 1018.2 |
| 20260503200012 | 80 | 143 | 2.0 | 0.0 | 0.00 | 0.00 | 0.00 | 36 | 1018.4 |
| 20260503194514 | 79 | 207 | 3.0 | 0.0 | 0.00 | 0.00 | 0.00 | 40 | 1018.6 |
| 20260503193006 | 79 | 162 | 4.0 | 0.0 | 0.00 | 0.00 | 0.00 | 36 | 1018.9 |
| 20260503191505 | 79 | 142 | 3.0 | 0.0 | 0.00 | 0.00 | 0.00 | 40 | 1018.9 |
| 20260503190004 | 79 | 218 | 3.0 | 0.0 | 0.00 | 0.00 | 0.00 | 40 | 1019.2 |
| 20260503184605 | 79 | 168 | 3.0 | 0.0 | 0.00 | 0.00 | 0.00 | 40 | 1019.5 |
| 20260503183102 | 80 | 270 | 2.0 | 0.0 | 0.00 | 0.00 | 0.00 | 42 | 1019.6 |
| 20260503181601 | 79 | 221 | 3.0 | 0.0 | 0.00 | 0.00 | 0.00 | 40 | 1019.9 |
| 20260503180056 | 78 | 118 | 2.0 | 0.0 | 0.00 | 0.00 | 0.00 | 41 | 1020.3 |
| 20260503174552 | 77 | 253 | 3.0 | 0.0 | 0.00 | 0.00 | 0.00 | 43 | 1020.6 |
| 20260503173052 | 77 | 101 | 3.0 | 0.0 | 0.00 | 0.00 | 0.00 | 45 | 1020.7 |
| 20260503171550 | 77 | 153 | 2.0 | 0.0 | 0.00 | 0.00 | 0.00 | 41 | 1020.9 |
| 20260503081545 | 52 | 132 | 0.0 | 0.0 | 0.00 | 0.00 | 0.00 | 87 | 1019.8 |
| 20260503071532 | 52 | 132 | 0.0 | 0.0 | 0.00 | 0.00 | 0.00 | 86 | 1020.1 |
| 20260503054533 | 54 | 132 | 0.0 | 0.0 | 0.00 | 0.00 | 0.00 | 84 | 1020.4 |
| 20260503053035 | 54 | 132 | 0.0 | 0.0 | 0.00 | 0.00 | 0.00 | 83 | 1020.5 |
| 20260503051521 | 54 | 132 | 0.0 | 0.0 | 0.00 | 0.00 | 0.00 | 83 | 1020.5 |
| 20260503050017 | 55 | 132 | 0.0 | 0.0 | 0.00 | 0.00 | 0.00 | 81 | 1020.4 |
| 20260503044517 | 55 | 132 | 0.0 | 0.0 | 0.00 | 0.00 | 0.00 | 81 | 1020.3 |
| 20260503043025 | 56 | 132 | 0.0 | 0.0 | 0.00 | 0.00 | 0.00 | 80 | 1020.4 |
| 20260503041516 | 56 | 132 | 0.0 | 0.0 | 0.00 | 0.00 | 0.00 | 79 | 1020.2 |
| 20260503040026 | 57 | 132 | 0.0 | 0.0 | 0.00 | 0.00 | 0.00 | 78 | 1020.1 |
| 20260503034515 | 57 | 132 | 0.0 | 0.0 | 0.00 | 0.00 | 0.00 | 76 | 1020.2 |
| 20260503033016 | 58 | 132 | 0.0 | 0.0 | 0.00 | 0.00 | 0.00 | 74 | 1020.0 |
| 20260503031514 | 58 | 132 | 0.0 | 0.0 | 0.00 | 0.00 | 0.00 | 74 | 1019.9 |
| 20260503030013 | 58 | 132 | 0.0 | 0.0 | 0.00 | 0.00 | 0.00 | 74 | 1019.8 |
| 20260503024513 | 59 | 132 | 0.0 | 0.0 | 0.00 | 0.00 | 0.00 | 72 | 1019.7 |
| 20260503023012 | 60 | 132 | 0.0 | 0.0 | 0.00 | 0.00 | 0.00 | 70 | 1019.2 |
| 20260503021511 | 61 | 132 | 0.0 | 0.0 | 0.00 | 0.00 | 0.00 | 68 | 1019.1 |